Погода Дивное

Хотите узнать прогноз погоды Дивное? Тогда Вам сюда: Погода Дивное

Поиск расширенной информации на нашем сайте:

Полезная информация:

Новости сайта



02.01.2020
Опубликован Долгосрочный прогноз погоды по городам России и ближнего зарубежья на январь 2020 года.
Карты: Прогноз на январь и февраль 2020 года, Сравнение прогнозируемой аномалии приземной температуры воздуха на январь 2020 года по разным моделям.




Погода Дивное - сегодня

Время (UTC), дата Ветер
(°,м/с) 
Видим.   Явления Облачность Т
(°С)
Тd
(°С)
f(%) Тe
(°С)
Pmin
(гПа)
dP
(гПа)
Po
(мм)
O2
(г/м3)
Тmin Tmax R s Состояние
почвы
12 18.10.20 160 (Ю) 10 км  {туман}  6/0 верхняя 
[Ci sp]
+27 +8.2 30 +27  1013.5  -1.1  753  275           
15 18.10.20 230 (ЮЗ) 3{12}  10 км    8/0 средняя, верхняя 
[Ac trans|Ci sp]
+28.2 +8.3 29 +28  1008.2  0.1  749  272    +31.6       
18 18.10.20 190 (Ю) 10 км    ясно 
+18.8 +6.7 45 +19    0.5  753  283           
21 18.10.20 270 (З) 10 км    ясно 
+16.4 +8.4 59 +18  1014.9  0.2  753  285           
00 19.10.20 350 (С) 10 км    10/0 средняя 
[Ac As]
+13.2 +7.5 68 +14  1016.1  1.1  754  289           
03 19.10.20 190 (Ю) 10 км    10/0 средняя 
[Ac As]
+13.9 +8.3 69 +15  1016.5  0.4  755  288  +12.4        сухая 
06 19.10.20 310 (СЗ) 10 км    10/0 средняя 
[Ac As]
+17.2 +11.1 67 +20  1017.7  1.3  756  284           
09 19.10.20 320 (СЗ) 10 км    6/0 средняя, верхняя 
[Ac trans|Ci sp]
+21.5 +8.6 44 +22  1016  -1.5  754  280           
12 19.10.20 310 (СЗ) 10 км    10/3 1000 м кучево-дожд., средняя 
[Cb calv|Ac As]
+21.9 +7.8 40 +22  1015.2  -0.8  754  280           
15 19.10.20 320 (СЗ) 4000 м  слаб. ливневой дождь  10/3 600 м кучево-дожд., средняя 
[Cb calv|Ac As]
+16 +12.8 81 +21  1016  0.5  754  285    +22.8  0.0     
18 19.10.20 240 (ЮЗ) 1000 м  слаб. ливневой дождь  10/5 600 м кучево-дожд., средняя 
[Cb cap|Ac As]
+14.4 +14.3 99 +22  1017.1  1.1  755  286           
21 19.10.20 340 (С) 5-10{11}  2000 м  дымка{ливн. осадки}  8/3 600 м кучево-дожд., средняя 
[Cb calv|Ac As]
+11.9 +11.3 96 +14  1018.5  1.3  756  290           
00 20.10.20 330 (СЗ) 3{10}  2000 м  дымка{ливн. осадки}  10/0 средняя 
[Ac As]
+10.9 +10.1 95 +12  1022.1  3.4  759  292           
03 20.10.20 250 (З) 2000 м  дымка  9/0 средняя 
[Ac As]
+10.2 +9.3 94 +11  1023.8  1.7  760  294  +10.1       
06 20.10.20 250 (З) 2000 м  дымка  10/0 средняя 
[Ac As]
+11.5 +10.7 95 +14  1025.2  1.4  761  292  +9.9         
09 20.10.20 260 (З) 4000 м  дымка  9/3 1000 м кучево-дожд., средняя 
[Cb calv|Ac As]
+13.7 +9.4 75 +14  1024.4  -0.7  760  290           
12 20.10.20 310 (СЗ) 10 км    9/3 1000 м кучево-дожд., средняя 
[Cb calv|Ac As]
+14.2 +7.6 64 +14  1024.1  -0.3  760  290           
15 20.10.20 240 (ЮЗ) 10 км    8/0 средняя, верхняя 
[Ac trans|Ci sp]
+11.2 +6.1 71 +12  1024.7  0.5  761  293    +14.5       
18 20.10.20 270 (З) 10 км    ясно 
+9.3 +4.7 73 +9  1025.6  0.8  761  296           
21 20.10.20 250 (З) 4000 м  дымка  4/0 средняя 
[Ac trans]
+7.8 +4 77 +8  1026.4  0.7  762  298           
00 21.10.20 250 (З) 10 км    4/0 средняя 
[Ac trans]
+6.3 +1.8 73 +6  1027.2  0.7  762  300           
03 21.10.20 250 (З) 10 км    3/0 
+5.2 +0.6 72 +5  1028.4  763  302  +5.2         
06 21.10.20 260 (З) 10 км    ясно 
+8.9 +2.9 66 +8  1029.7  1.1  764  298  +4.8         
09 21.10.20 300 (СЗ) 10 км    ясно 
+12.7 +1.2 45 +13  1029.5  0.1  764  294           
12 21.10.20 300 (СЗ) 10 км    ясно 
+12.9 -0.7 39 +13  1028.5  -0.9  763  294           
Время (UTC), дата Ветер
(°,м/с) 
Видим.   Явления Облачность Т
(°С)
Тd
(°С)
f(%) Тe
(°С)
Pmin
(гПа)
dP
(гПа)
Po
(мм)
O2
(г/м3)
Тmin Tmax R s Состояние
почвы

Для получения пояснительной информации подведите курсор к названию столбца.

ПОГОДА Дивное - архив

Всё, что Вы хотите узнать о погоде Дивное - удобно и подробно!

Выберите нужную дату (начиная с 1 января 2019* года) и нажмите кнопку "Найти".
Будут отображены архивные сводки погоды по пункту Дивное, начиная с указанной даты.


Отображать данные в формате CSV (для использования в таблицах Excel)


Внимание! Наш архив погоды предназначен исключительно для личного некоммерческого использования в познавательных целях. Если Вам необходимы официальные справки о состоянии погоды (для производственных, юридических, коммерческих и т.п. целей), обращайтесь в органы Росгидромета.

*Примечание: данная дата относится к архиву по метеостанциям СССР (Россия, СНГ, Балтия).
Архив по метеостанциям Зарубежной Европы и Азии (кроме Китая) хранится 10 дней, по другим регионам земного шара (Китай, Африка, Америка, Австралия, Океания) - 1 день.

Дивное - район местоположения метеостанции


Название, широта, долгота, высота метеостанции:
Дивное 45.9°ш. 43.3°д. 87 м над ур. моря [Российская Федерация]

Дополнительная информация

В oтличие oт бoльшинства пoгoдных сайтoв мы публикуем пoдрoбную метеoинфoрмацию в детальнoм прoфессиoнальнoм фoрмате.

Характеристики температуры и влажнoсти вoздуха измеряются на высoте 2 м в тени вдали oт зданий и деревьев.
Скoрoсть ветра измеряется на высoте 10 м (на урoвне рoста челoвека скoрoсть ветра ниже в 1.5-2 раза). Если метеoстанция нахoдится в гoрoде или в лесу, тo скoрoсть ветра занижена на 2-4 м/с пo сравнению с oткрытым местoм. Скoрoсть ветра над акватoриями крупных рек и oзёр, а также на вершинах хoлмoв на 2-5 м/с выше, чем в oбычных услoвиях.
Атмoсфернoе давление в разных тoчках местнoсти мoжет значительнo oтличаться oт давления на метеoстанции, в зависимoсти oт услoвий рельефа (при пoдъёме на 10 м давление пoнижается примернo на 1 мм рт.ст.).